Погода в Арендале

Норвегия     58°27′41″N   8°45′48″E
темп.,
°C
ветер,
м/с
пор.,
м/с
влажн.,
%
обл.,
%
осадки,
мм/ч
давл.,
гПа
погр.,
м
15 августа, пн
пн1523:00+18с226793 0.0 101232
02:00+16с2374100 0.0 101248
05:00+17с3570100 0.0 1010106
08:00+19св3865100 0.0 1010319
11:00+22всв6758100 0.0 1009635
14:00+23всв5754100 0.0 1009703
17:00+24в355855 0.0 1008660
20:00+22св26675 0.0 1006231
16 августа, вт
вт1623:00+18ссв238311 0.1 100743
02:00+17св269953 1.8 1007212
05:00+17ссв489797 0.3 1006328
08:00+18св5998100 0.8 1006505
11:00+18всв4797100 2.1 1006412
14:00+18всв3697100 7.3 1006356
17:00+20ююв2388100 0.4 1005392
20:00+20юз388427 0.4 1005625
17 августа, ср
ср1723:00+17юз389443 0.0 1007257
02:00+15юз2795100 0.0 1008149
05:00+15зюз2394100 0.0 100876
08:00+18зюз37755 0.0 1009235
11:00+24юз47515 0.0 10101131
14:00+24ююз56505 0.0 10111358
17:00+23ююз675925 0.0 1011674
20:00+20юз48645 0.0 1012309
18 августа, чт
чт1823:00+16юз2382100 0.0 101372
02:00+15зюз117872 0.0 101324
05:00+14с228674 0.0 101452
08:00+16с1392100 0.0 1015151
11:00+16юв1189100 1.4 1015246
14:00+16юв1289100 1.4 1016284
17:00+15в1193100 0.5 1015170
20:00+16юв1193100 0.6 1014112
19 августа, пт
пт1923:00+14зюз119798 0.0 101436
02:00+12з0096100 0.0 101327
05:00+11зсз119683 0.0 101321
08:00+13зсз118999 0.0 101376
11:00+20юз125098 0.0 1013550
14:00+22ююв334443 0.0 1012904
17:00+21ю344717 0.0 1011583
20:00+18ююз366776 0.0 1011190